Tracking 30074 objects as of 13-Jan-2025
HD Live streaming from Space Station
objects crossing your sky now

COSMOS 1295

Track COSMOS 1295 now!
10-day predictions
COSMOS 1295 is classified as:


NORAD ID: 12681
Int'l Code: 1981-077A
Perigee: 951.8 km
Apogee: 1,014.6 km
Inclination: 82.9 °
Period: 104.6 minutes
Semi major axis: 7354 km
RCS: 2.187 m2 (large)
Launch date: August 12, 1981
Source: Commonwealth of Independent States (former USSR) (CIS)
Launch site: PLESETSK MISSILE AND SPACE COMPLEX (PKMTR)
Your satellite tracking list
Your tracking list is empty




NASA's NSSDC Master Catalog

Two Line Element Set (TLE):
1 12681U 81077A   25012.91035885  .00000074  00000-0  60417-4 0  9993
2 12681  82.9197 148.4923 0042721 288.9740 189.5319 13.76580085180919
Source of the keplerian elements: AFSPC